Location: Christian Reformed Church
(43.0975°N, 93.8113°W)
Time: 12:23:39
(UTC+00:00)

Okean 1-7 Rocket - Pass Details

Date: 15 March 2026
Orbit: 609 x 643 km, 82.5° (Epoch: 14 April)

Event Time Altitude Azimuth Distance (km) Brightness Sun altitude
Rises 01:32:03 0° 212° (SSW) 2,939 7.3 -13.8°
Reaches altitude 10° 01:34:30 10° 223° (SW) 2,035 6.6 -14.2°
Maximum altitude 01:38:31 31° 285° (WNW) 1,135 5.7 -15.0°
Drops below altitude 10° 01:42:34 10° 348° (NNW) 2,045 6.5 -15.7°
Sets 01:45:02 0° 359° (N) 2,956 7.2 -16.1°
